******** Week 277 almanac for PRN-02 ******** ID: 02 Health: 000 Eccentricity: 0.1604938507E-001 Time of Applicability(s): 503808.0000 Orbital Inclination(rad): 0.9672431968 Rate of Right Ascen(r/s): -0.7943188009E-008 SQRT(A) (m 1/2): 5153.646973 Right Ascen at Week(rad): 0.8071858588E+000 Argument of Perigee(rad): -1.152610544 Mean Anom(rad): 0.1882034138E+001 Af0(s): -0.3871917725E-003 Af1(s/s): 0.7275957614E-011 week: 277 ******** Week 277 almanac for PRN-03 ******** ID: 03 Health: 000 Eccentricity: 0.5726337433E-002 Time of Applicability(s): 503808.0000 Orbital Inclination(rad): 0.9852015579 Rate of Right Ascen(r/s): -0.7908900866E-008 SQRT(A) (m 1/2): 5153.640137 Right Ascen at Week(rad): 0.1943518455E+001 Argument of Perigee(rad): 1.136684258 Mean Anom(rad): -0.1674921265E+001 Af0(s): 0.4844665527E-003 Af1(s/s): 0.1455191523E-010 week: 277 ******** Week 277 almanac for PRN-04 ******** ID: 04 Health: 000 Eccentricity: 0.2917289734E-002 Time of Applicability(s): 503808.0000 Orbital Inclination(rad): 0.9658590189 Rate of Right Ascen(r/s): -0.7543171346E-008 SQRT(A) (m 1/2): 5153.680176 Right Ascen at Week(rad): 0.3021497238E+001 Argument of Perigee(rad): -2.982601687 Mean Anom(rad): 0.1368050580E+001 Af0(s): 0.4167556763E-003 Af1(s/s): 0.7275957614E-011 week: 277 ******** Week 277 almanac for PRN-05 ******** ID: 05 Health: 000 Eccentricity: 0.5959510803E-002 Time of Applicability(s): 503808.0000 Orbital Inclination(rad): 0.9721147843 Rate of Right Ascen(r/s): -0.8057478483E-008 SQRT(A) (m 1/2): 5153.603027 Right Ascen at Week(rad): 0.1891276597E+001 Argument of Perigee(rad): 1.300410492 Mean Anom(rad): 0.2031703625E+001 Af0(s): -0.1821517944E-003 Af1(s/s): 0.0000000000E+000 week: 277 ******** Week 277 almanac for PRN-06 ******** ID: 06 Health: 000 Eccentricity: 0.2946853638E-002 Time of Applicability(s): 503808.0000 Orbital Inclination(rad): 0.9896596895 Rate of Right Ascen(r/s): -0.7817468486E-008 SQRT(A) (m 1/2): 5153.624512 Right Ascen at Week(rad): 0.9069758780E+000 Argument of Perigee(rad): -0.726649246 Mean Anom(rad): -0.2413881306E+000 Af0(s): 0.1230239868E-003 Af1(s/s): -0.2546585165E-010 week: 277 ******** Week 277 almanac for PRN-07 ******** ID: 07 Health: 000 Eccentricity: 0.1868772507E-001 Time of Applicability(s): 503808.0000 Orbital Inclination(rad): 0.9502615502 Rate of Right Ascen(r/s): -0.7897471819E-008 SQRT(A) (m 1/2): 5153.560547 Right Ascen at Week(rad): -0.2249653607E+001 Argument of Perigee(rad): -2.106578066 Mean Anom(rad): -0.1146214713E+001 Af0(s): -0.5817413330E-004 Af1(s/s): 0.7275957614E-011 week: 277 ******** Week 277 almanac for PRN-08 ******** ID: 08 Health: 000 Eccentricity: 0.9532928467E-002 Time of Applicability(s): 503808.0000 Orbital Inclination(rad): 0.9524127185 Rate of Right Ascen(r/s): -0.7703178011E-008 SQRT(A) (m 1/2): 5153.619141 Right Ascen at Week(rad): -0.1905589132E+000 Argument of Perigee(rad): 0.367622840 Mean Anom(rad): 0.1698005129E+001 Af0(s): 0.3004074097E-003 Af1(s/s): 0.1455191523E-010 week: 277 ******** Week 277 almanac for PRN-09 ******** ID: 09 Health: 000 Eccentricity: 0.2940654755E-002 Time of Applicability(s): 503808.0000 Orbital Inclination(rad): 0.9594953954 Rate of Right Ascen(r/s): -0.7623174679E-008 SQRT(A) (m 1/2): 5153.580078 Right Ascen at Week(rad): 0.2961481363E+001 Argument of Perigee(rad): 1.966836760 Mean Anom(rad): 0.2190238067E+001 Af0(s): 0.2985000610E-003 Af1(s/s): 0.1455191523E-010 week: 277 ******** Week 277 almanac for PRN-10 ******** ID: 10 Health: 000 Eccentricity: 0.9474277496E-002 Time of Applicability(s): 503808.0000 Orbital Inclination(rad): 0.9848480232 Rate of Right Ascen(r/s): -0.7920329914E-008 SQRT(A) (m 1/2): 5153.641602 Right Ascen at Week(rad): 0.1940962070E+001 Argument of Perigee(rad): -2.378457810 Mean Anom(rad): -0.2614112986E+001 Af0(s): -0.8296966553E-004 Af1(s/s): -0.1091393642E-010 week: 277 ******** Week 277 almanac for PRN-11 ******** ID: 11 Health: 000 Eccentricity: 0.1534461975E-002 Time of Applicability(s): 503808.0000 Orbital Inclination(rad): 0.9662185456 Rate of Right Ascen(r/s): -0.8046049436E-008 SQRT(A) (m 1/2): 5153.700195 Right Ascen at Week(rad): 0.9385453225E+000 Argument of Perigee(rad): -2.585650078 Mean Anom(rad): 0.9696286568E+000 Af0(s): -0.7152557373E-003 Af1(s/s): -0.7275957614E-011 week: 277 ******** Week 277 almanac for PRN-12 ******** ID: 12 Health: 000 Eccentricity: 0.8660793304E-002 Time of Applicability(s): 503808.0000 Orbital Inclination(rad): 0.9615926348 Rate of Right Ascen(r/s): -0.7806039439E-008 SQRT(A) (m 1/2): 5153.555176 Right Ascen at Week(rad): -0.1133438405E+001 Argument of Perigee(rad): 1.459876333 Mean Anom(rad): -0.1878965802E+001 Af0(s): -0.5273818970E-003 Af1(s/s): -0.3637978807E-011 week: 277 ******** Week 277 almanac for PRN-13 ******** ID: 13 Health: 000 Eccentricity: 0.8410453796E-002 Time of Applicability(s): 503808.0000 Orbital Inclination(rad): 0.9723245082 Rate of Right Ascen(r/s): -0.7486026109E-008 SQRT(A) (m 1/2): 5153.616699 Right Ascen at Week(rad): 0.3128329487E+001 Argument of Perigee(rad): 0.941386333 Mean Anom(rad): 0.1411831950E+001 Af0(s): 0.6685256958E-003 Af1(s/s): 0.3637978807E-011 week: 277 ******** Week 277 almanac for PRN-14 ******** ID: 14 Health: 000 Eccentricity: 0.4774570465E-002 Time of Applicability(s): 503808.0000 Orbital Inclination(rad): 0.9449046016 Rate of Right Ascen(r/s): -0.8023191341E-008 SQRT(A) (m 1/2): 5153.633301 Right Ascen at Week(rad): -0.1178949998E+001 Argument of Perigee(rad): -2.864804995 Mean Anom(rad): -0.1960542795E+001 Af0(s): 0.4634857178E-003 Af1(s/s): 0.7275957614E-011 week: 277 ******** Week 277 almanac for PRN-15 ******** ID: 15 Health: 000 Eccentricity: 0.1595306396E-001 Time of Applicability(s): 503808.0000 Orbital Inclination(rad): 0.9364197704 Rate of Right Ascen(r/s): -0.7897471819E-008 SQRT(A) (m 1/2): 5153.639648 Right Ascen at Week(rad): 0.2831909421E+001 Argument of Perigee(rad): 1.334052083 Mean Anom(rad): 0.7246576175E+000 Af0(s): 0.1878738403E-003 Af1(s/s): 0.3637978807E-011 week: 277 ******** Week 277 almanac for PRN-16 ******** ID: 16 Health: 000 Eccentricity: 0.1384210587E-001 Time of Applicability(s): 503808.0000 Orbital Inclination(rad): 0.9610473526 Rate of Right Ascen(r/s): -0.7817468486E-008 SQRT(A) (m 1/2): 5153.539062 Right Ascen at Week(rad): -0.1115643330E+001 Argument of Perigee(rad): 0.840201649 Mean Anom(rad): 0.2637068020E+001 Af0(s): -0.2193450928E-003 Af1(s/s): 0.1091393642E-010 week: 277 ******** Week 277 almanac for PRN-17 ******** ID: 17 Health: 000 Eccentricity: 0.1343584061E-001 Time of Applicability(s): 503808.0000 Orbital Inclination(rad): 0.9682378875 Rate of Right Ascen(r/s): -0.7520313251E-008 SQRT(A) (m 1/2): 5153.731934 Right Ascen at Week(rad): -0.9484240689E-001 Argument of Perigee(rad): -1.313020892 Mean Anom(rad): 0.1647838415E+001 Af0(s): 0.6637573242E-003 Af1(s/s): -0.7275957614E-011 week: 277 ******** Week 277 almanac for PRN-18 ******** ID: 18 Health: 000 Eccentricity: 0.4454135895E-002 Time of Applicability(s): 503808.0000 Orbital Inclination(rad): 0.9745116292 Rate of Right Ascen(r/s): -0.7966046104E-008 SQRT(A) (m 1/2): 5153.557617 Right Ascen at Week(rad): 0.9100917765E+000 Argument of Perigee(rad): -3.033465359 Mean Anom(rad): -0.2581810257E+000 Af0(s): -0.6427764893E-003 Af1(s/s): -0.3637978807E-011 week: 277 ******** Week 277 almanac for PRN-19 ******** ID: 19 Health: 000 Eccentricity: 0.1000452042E-001 Time of Applicability(s): 503808.0000 Orbital Inclination(rad): 0.9674529208 Rate of Right Ascen(r/s): -0.7520313251E-008 SQRT(A) (m 1/2): 5153.683594 Right Ascen at Week(rad): -0.5058953290E-001 Argument of Perigee(rad): 2.611631503 Mean Anom(rad): -0.2682115598E+001 Af0(s): 0.5187988281E-003 Af1(s/s): 0.3637978807E-011 week: 277 ******** Week 277 almanac for PRN-20 ******** ID: 20 Health: 000 Eccentricity: 0.3697395325E-002 Time of Applicability(s): 503808.0000 Orbital Inclination(rad): 0.9544740052 Rate of Right Ascen(r/s): -0.8286059433E-008 SQRT(A) (m 1/2): 5153.519043 Right Ascen at Week(rad): 0.1761215174E+001 Argument of Perigee(rad): -2.576317737 Mean Anom(rad): 0.1360557818E+000 Af0(s): 0.3719329834E-003 Af1(s/s): 0.0000000000E+000 week: 277 ******** Week 277 almanac for PRN-21 ******** ID: 21 Health: 000 Eccentricity: 0.2527999878E-001 Time of Applicability(s): 503808.0000 Orbital Inclination(rad): 0.9615027531 Rate of Right Ascen(r/s): -0.7943188009E-008 SQRT(A) (m 1/2): 5153.619629 Right Ascen at Week(rad): 0.7995983464E+000 Argument of Perigee(rad): -0.539815554 Mean Anom(rad): 0.1518773930E+001 Af0(s): 0.1049041748E-003 Af1(s/s): -0.3637978807E-011 week: 277 ******** Week 277 almanac for PRN-22 ******** ID: 22 Health: 000 Eccentricity: 0.1419973373E-001 Time of Applicability(s): 503808.0000 Orbital Inclination(rad): 0.9603822281 Rate of Right Ascen(r/s): -0.7840326581E-008 SQRT(A) (m 1/2): 5153.635254 Right Ascen at Week(rad): -0.1112346170E+001 Argument of Perigee(rad): -1.128172462 Mean Anom(rad): 0.2197652183E+001 Af0(s): -0.4673004150E-004 Af1(s/s): -0.3637978807E-011 week: 277 ******** Week 277 almanac for PRN-23 ******** ID: 23 Health: 000 Eccentricity: 0.4465579987E-002 Time of Applicability(s): 503808.0000 Orbital Inclination(rad): 0.9799704437 Rate of Right Ascen(r/s): -0.7988904198E-008 SQRT(A) (m 1/2): 5153.553223 Right Ascen at Week(rad): 0.1911639293E+001 Argument of Perigee(rad): -2.965463496 Mean Anom(rad): -0.1462873513E+001 Af0(s): 0.2880096436E-003 Af1(s/s): 0.7275957614E-011 week: 277 ******** Week 277 almanac for PRN-24 ******** ID: 24 Health: 000 Eccentricity: 0.1559877396E-001 Time of Applicability(s): 503808.0000 Orbital Inclination(rad): 0.9340648702 Rate of Right Ascen(r/s): -0.7977475151E-008 SQRT(A) (m 1/2): 5153.642090 Right Ascen at Week(rad): -0.2347871821E+001 Argument of Perigee(rad): 0.992741733 Mean Anom(rad): -0.1674110083E+000 Af0(s): -0.4854202271E-003 Af1(s/s): 0.0000000000E+000 week: 277 ******** Week 277 almanac for PRN-25 ******** ID: 25 Health: 000 Eccentricity: 0.1163768768E-001 Time of Applicability(s): 503808.0000 Orbital Inclination(rad): 0.9495424967 Rate of Right Ascen(r/s): -0.7977475151E-008 SQRT(A) (m 1/2): 5153.690430 Right Ascen at Week(rad): -0.1220795540E+001 Argument of Perigee(rad): 1.091065931 Mean Anom(rad): -0.1963197301E+001 Af0(s): 0.4987716675E-003 Af1(s/s): 0.0000000000E+000 week: 277 ******** Week 277 almanac for PRN-26 ******** ID: 26 Health: 000 Eccentricity: 0.9003162384E-002 Time of Applicability(s): 503808.0000 Orbital Inclination(rad): 0.9302898393 Rate of Right Ascen(r/s): -0.8217485148E-008 SQRT(A) (m 1/2): 5153.605957 Right Ascen at Week(rad): -0.1284561729E+001 Argument of Perigee(rad): 0.544155342 Mean Anom(rad): -0.2719100414E+001 Af0(s): 0.1087188721E-003 Af1(s/s): -0.7275957614E-011 week: 277 ******** Week 277 almanac for PRN-27 ******** ID: 27 Health: 000 Eccentricity: 0.1253843307E-001 Time of Applicability(s): 503808.0000 Orbital Inclination(rad): 0.9614548162 Rate of Right Ascen(r/s): -0.7600316584E-008 SQRT(A) (m 1/2): 5153.639648 Right Ascen at Week(rad): -0.1635299919E+000 Argument of Perigee(rad): 0.798292440 Mean Anom(rad): 0.1749691219E+001 Af0(s): -0.3242492676E-004 Af1(s/s): 0.0000000000E+000 week: 277 ******** Week 277 almanac for PRN-28 ******** ID: 28 Health: 000 Eccentricity: 0.3123283386E-003 Time of Applicability(s): 503808.0000 Orbital Inclination(rad): 0.9613769188 Rate of Right Ascen(r/s): -0.7771752296E-008 SQRT(A) (m 1/2): 5153.633789 Right Ascen at Week(rad): -0.2281957835E+001 Argument of Perigee(rad): 1.460221254 Mean Anom(rad): -0.2313466609E+001 Af0(s): -0.3566741943E-003 Af1(s/s): -0.1455191523E-010 week: 277 ******** Week 277 almanac for PRN-29 ******** ID: 29 Health: 000 Eccentricity: 0.3027915955E-002 Time of Applicability(s): 503808.0000 Orbital Inclination(rad): 0.9706946536 Rate of Right Ascen(r/s): -0.7531742299E-008 SQRT(A) (m 1/2): 5153.518066 Right Ascen at Week(rad): -0.7968573294E-001 Argument of Perigee(rad): 2.639797802 Mean Anom(rad): 0.1661768953E+001 Af0(s): -0.5865097046E-003 Af1(s/s): 0.3637978807E-011 week: 277 ******** Week 277 almanac for PRN-30 ******** ID: 30 Health: 000 Eccentricity: 0.7184028625E-002 Time of Applicability(s): 503808.0000 Orbital Inclination(rad): 0.9354071034 Rate of Right Ascen(r/s): -0.8068907531E-008 SQRT(A) (m 1/2): 5153.539062 Right Ascen at Week(rad): -0.2250061820E+001 Argument of Perigee(rad): -2.445769456 Mean Anom(rad): -0.1299206451E+001 Af0(s): -0.3471374512E-003 Af1(s/s): 0.7275957614E-011 week: 277 ******** Week 277 almanac for PRN-31 ******** ID: 31 Health: 000 Eccentricity: 0.1052999496E-001 Time of Applicability(s): 503808.0000 Orbital Inclination(rad): 0.9541983680 Rate of Right Ascen(r/s): -0.7828897534E-008 SQRT(A) (m 1/2): 5153.702637 Right Ascen at Week(rad): -0.2227854302E+001 Argument of Perigee(rad): 0.701474509 Mean Anom(rad): -0.2095625233E+001 Af0(s): -0.2260208130E-003 Af1(s/s): 0.0000000000E+000 week: 277 ******** Week 277 almanac for PRN-32 ******** ID: 32 Health: 000 Eccentricity: 0.7793903351E-002 Time of Applicability(s): 503808.0000 Orbital Inclination(rad): 0.9628749469 Rate of Right Ascen(r/s): -0.7588887536E-008 SQRT(A) (m 1/2): 5153.666504 Right Ascen at Week(rad): 0.2976358655E+001 Argument of Perigee(rad): -2.131505628 Mean Anom(rad): 0.2406918846E+001 Af0(s): -0.6084442139E-003 Af1(s/s): 0.3637978807E-011 week: 277